Погода Верхний Баскунчак

Погода Верхний Баскунчак : погода сейчас, прогноз погоды и архив. Всё, что Вы хотите узнать о погоде Верхний Баскунчак!

Хотите узнать прогноз погоды Верхний Баскунчак? Тогда Вам сюда: Погода Верхний Баскунчак

Поиск расширенной информации на нашем сайте:

Другие новости

Новости СМИ2

Главная страница сайта

Новости сайта

03.07.2017

Напоминаем, что на нашем специализированном сайте Метеоцентр.Азия вы можете получить высокодетализированные автоматические прогнозы погоды по пунктам России, СНГ и мира в авиационном формате (включающие направление и скорость ветра, видимость, явления погоды, количество и форму облачности, нижнюю и верхнюю границу облачности).


Погода Верхний Баскунчак - сегодня

Время (UTC), дата Ветер
(°,м/с) 
Видим.   Явления Облачность Т
(°С)
Тd
(°С)
f(%) Тe
(°С)
Pmin
(гПа)
dP
(гПа)
Po
(мм)
O2
(г/м3)
Тmin Tmax R s Состояние
почвы
09 16.08.18 150 (ЮВ) 20000 м    3/3 1000 м 
[Cu hum]
+32.7 +10.5 26 +34  1016.9  -0.7  760  272           
12 16.08.18 320 (СЗ) 2{12}  20000 м    4/4 1000 м 
[Cu med, cong]
+33.7 +7.8 20 +34  1015.6  -1.3  759  271           
15 16.08.18 тихо ()   20000 м    3/3 1000 м 
[Cu med, cong]
+33 +6.7 19 +33  1014.7  -0.9  758  271    +34.3       
18 16.08.18 120 (ЮВ) 20000 м    3/0 верхняя 
[Ci sp]
+26.4 +8.8 33 +26  1015.7  0.9  759  277           
21 16.08.18 150 (ЮВ) 20000 м    ясно 
+22.6 +7.9 39 +23  1015.9  0.1  759  281           
00 17.08.18 210 (ЮЗ) 20000 м    ясно 
+19.4 +10.3 56 +21  1015.9  759  284           
03 17.08.18 260 (З) 20000 м    3/0 верхняя 
[Ci fib]
+20.6 +10.6 53 +22  1015.9  759  282  +18.8        сухая 
06 17.08.18 150 (ЮВ) 20000 м    6/0 верхняя 
[Ci fib]
+29.1 +4.8 21 +29  1015.7  -0.1  759  276           
09 17.08.18 160 (Ю) 20000 м    8/0 верхняя 
[Ci sp]
+32.3 +0.5 13 +32  1014.6  -1  758  273           
12 17.08.18 070 (В) 20000 м    8/0 верхняя 
[Ci sp]
+33.3 +1.5 13 +33  1013  -1.6  757  272           
15 17.08.18 060 (СВ) 20000 м    3/0 верхняя 
[Ci sp]
+31.5 +0.6 14 +32  1012.3  -0.7  756  273    +34       
18 17.08.18 080 (В) 20000 м    ясно 
+22.4 +5.9 34 +22  1012.3  -0.1  756  281           
21 17.08.18 310 (СЗ) 20000 м    ясно 
+18.2 +7.2 49 +20  1011.9  -0.5  756  284           
00 18.08.18 030 (СВ) 20000 м    ясно 
+19.4 +12.9 66 +25  1012.2  0.4  756  282           
03 18.08.18 020 (С) 20000 м    3/0 верхняя 
[Ci sp]
+19 +14 73 +27  1013.1  0.8  757  282  +17.8        сухая 
06 18.08.18 040 (СВ) 5-10{12}  10 км  пыльный позёмок  6/4 1000 м верхняя 
[Cu med, cong|Ci sp]
+23.3 +14.3 57 +31  1013.4  0.4  757  278           
09 18.08.18 030 (СВ) 6-12{13}  10 км  пыльный позёмок  4/3 1000 м верхняя 
[Cu med, cong|Ci sp]
+23.2 +13.9 56 +30  1013.9  0.5  757  279           
12 18.08.18 030 (СВ) 6-10{12}  10 км  пыльный позёмок  3/0 верхняя 
[Ci sp]
+27.4 +8.7 31 +27  1013.6  -0.3  757  276           
15 18.08.18 030 (СВ) 6-11  10 км  пыльный позёмок  ясно 
+25.4 +0.9 20 +25  1014.3  0.7  758  279    +27.6       
18 18.08.18 010 (С) 2{11}  20000 м    ясно 
+19.8 +1.5 29 +21  1016.1  1.7  759  285           
21 18.08.18 010 (С) 20000 м    ясно 
+17.5 +2.8 37 +18  1016.8  0.7  759  287           
00 19.08.18 010 (С) 20000 м    ясно 
+14.7 +3.4 47 +15  1017.2  0.3  760  290           
03 19.08.18 010 (С) 20000 м    ясно 
+13.6 +4.6 54 +14  1018.3  1.1  761  291  +12.9        сухая 
06 19.08.18 020 (С) 20000 м    ясно 
+20.6 +4.5 35 +21  1018.8  0.6  761  284           
09 19.08.18 010 (С) 4-11{14}  10 км  пыльный позёмок  ясно 
+23.9 +2.2 24 +24  1017.8  -0.9  760  281           
Время (UTC), дата Ветер
(°,м/с) 
Видим.   Явления Облачность Т
(°С)
Тd
(°С)
f(%) Тe
(°С)
Pmin
(гПа)
dP
(гПа)
Po
(мм)
O2
(г/м3)
Тmin Tmax R s Состояние
почвы

Для получения пояснительной информации подведите курсор к названию столбца.

ПОГОДА Верхний Баскунчак - архив

Всё, что Вы хотите узнать о погоде Верхний Баскунчак - удобно и подробно!

Выберите нужную дату (начиная с 1 января 2015* года) и нажмите кнопку "Найти".
Будут отображены архивные сводки погоды по пункту Верхний Баскунчак, начиная с указанной даты.


Отображать данные в формате CSV (для использования в таблицах Excel)


Внимание! Наш архив погоды предназначен исключительно для личного некоммерческого использования в познавательных целях. Если Вам необходимы официальные справки о состоянии погоды (для производственных, юридических, коммерческих и т.п. целей), обращайтесь в органы Росгидромета.

*Примечание: данная дата относится к архиву по метеостанциям СССР (Россия, СНГ, Балтия).
Архив по метеостанциям Зарубежной Европы и Азии (кроме Китая) хранится 10 дней, по другим регионам земного шара (Китай, Африка, Америка, Австралия, Океания) - 1 день.

Верхний Баскунчак - район местоположения метеостанции


Название, широта, долгота, высота метеостанции:
Верхний Баскунчак 48.2°ш. 46.7°д. 34 м над ур. моря [Российская Федерация]

Дополнительная информация

В oтличие oт бoльшинства пoгoдных сайтoв мы публикуем пoдрoбную метеoинфoрмацию в детальнoм прoфессиoнальнoм фoрмате.

Характеристики температуры и влажнoсти вoздуха измеряются на высoте 2 м в тени вдали oт зданий и деревьев.
Скoрoсть ветра измеряется на высoте 10 м (на урoвне рoста челoвека скoрoсть ветра ниже в 1.5-2 раза). Если метеoстанция нахoдится в гoрoде или в лесу, тo скoрoсть ветра занижена на 2-4 м/с пo сравнению с oткрытым местoм. Скoрoсть ветра над акватoриями крупных рек и oзёр, а также на вершинах хoлмoв на 2-5 м/с выше, чем в oбычных услoвиях.
Атмoсфернoе давление в разных тoчках местнoсти мoжет значительнo oтличаться oт давления на метеoстанции, в зависимoсти oт услoвий рельефа (при пoдъёме на 10 м давление пoнижается примернo на 1 мм рт.ст.).